| time (UTC) | temp F | wind direction | speed knots | gust knots | rain 1hr in | rain 24hr in | rain mn in | humidity % | barometer mb |
| 20260508231149 | 58 | 199 | 1.7 | 4.3 | 0.00 | 0.00 | 0.00 | 70 | 1008.5 |
| 20260508230922 | 58 | 196 | 1.7 | 4.3 | 0.00 | 0.00 | 0.00 | 71 | 1008.5 |
| 20260508230151 | 59 | 225 | 1.7 | 3.5 | 0.00 | 0.00 | 0.00 | 73 | 1008.5 |
| 20260508225649 | 59 | 249 | 0.9 | 2.6 | 0.00 | 0.00 | 0.00 | 73 | 1008.6 |
| 20260508225150 | 59 | 250 | 0.9 | 2.6 | 0.00 | 0.00 | 0.00 | 70 | 1008.6 |
| 20260508224651 | 59 | 251 | 0.0 | 1.7 | 0.00 | 0.00 | 0.00 | 69 | 1008.5 |
| 20260508224150 | 60 | 252 | 0.0 | 0.9 | 0.00 | 0.00 | 0.00 | 69 | 1008.5 |
| 20260508223650 | 60 | 252 | 0.0 | 1.7 | 0.00 | 0.00 | 0.00 | 68 | 1008.5 |
| 20260508223148 | 60 | 252 | 0.0 | 3.5 | 0.00 | 0.00 | 0.00 | 67 | 1008.5 |
| 20260508222920 | 61 | 251 | 0.9 | 3.5 | 0.00 | 0.00 | 0.00 | 67 | 1008.6 |
| 20260508222150 | 61 | 251 | 0.9 | 3.5 | 0.00 | 0.00 | 0.00 | 65 | 1008.6 |
| 20260508221647 | 61 | 252 | 0.9 | 5.2 | 0.00 | 0.00 | 0.00 | 68 | 1008.6 |
| 20260508221143 | 62 | 242 | 0.9 | 5.2 | 0.00 | 0.00 | 0.00 | 66 | 1008.6 |
| 20260508220643 | 62 | 247 | 1.7 | 4.3 | 0.00 | 0.00 | 0.00 | 64 | 1008.7 |
| 20260508220141 | 62 | 269 | 1.7 | 4.3 | 0.00 | 0.00 | 0.00 | 65 | 1008.6 |
| 20260508215641 | 62 | 282 | 1.7 | 5.2 | 0.00 | 0.00 | 0.00 | 62 | 1008.5 |
| 20260508215411 | 62 | 254 | 1.7 | 5.2 | 0.00 | 0.00 | 0.00 | 63 | 1008.5 |
| 20260508214638 | 62 | 275 | 1.7 | 5.2 | 0.00 | 0.00 | 0.00 | 61 | 1008.6 |
| 20260508214411 | 62 | 287 | 1.7 | 7.0 | 0.00 | 0.00 | 0.00 | 62 | 1008.5 |
| 20260508213631 | 62 | 257 | 2.6 | 7.0 | 0.00 | 0.00 | 0.00 | 59 | 1008.5 |
| 20260508213131 | 62 | 232 | 2.6 | 9.6 | 0.00 | 0.00 | 0.00 | 59 | 1008.5 |
| 20260508212633 | 62 | 234 | 2.6 | 9.6 | 0.00 | 0.00 | 0.00 | 57 | 1008.5 |
| 20260508212131 | 62 | 242 | 2.6 | 7.8 | 0.00 | 0.00 | 0.00 | 56 | 1008.6 |
| 20260508211627 | 62 | 190 | 2.6 | 7.8 | 0.00 | 0.00 | 0.00 | 55 | 1008.7 |
| 20260508211127 | 62 | 188 | 3.5 | 7.8 | 0.00 | 0.00 | 0.00 | 56 | 1008.7 |
| 20260508210623 | 62 | 254 | 3.5 | 8.7 | 0.00 | 0.00 | 0.00 | 56 | 1008.7 |
| 20260508210123 | 62 | 242 | 4.3 | 9.6 | 0.00 | 0.00 | 0.00 | 54 | 1008.8 |
| 20260508205853 | 63 | 320 | 4.3 | 9.6 | 0.00 | 0.00 | 0.00 | 55 | 1008.8 |
| 20260508205126 | 63 | 251 | 4.3 | 13.0 | 0.00 | 0.00 | 0.00 | 54 | 1008.9 |
| 20260508205122 | 63 | 275 | 4.3 | 13.0 | 0.00 | 0.00 | 0.00 | 55 | 1008.8 |
| 20260508204121 | 63 | 252 | 3.5 | 12.2 | 0.00 | 0.00 | 0.00 | 54 | 1008.9 |
| 20260508203619 | 63 | 237 | 4.3 | 11.3 | 0.00 | 0.00 | 0.00 | 54 | 1008.9 |
| 20260508203124 | 64 | 281 | 4.3 | 14.8 | 0.00 | 0.00 | 0.00 | 56 | 1009.1 |
| 20260508203119 | 63 | 242 | 4.3 | 13.9 | 0.00 | 0.00 | 0.00 | 53 | 1009.0 |
| 20260508202120 | 64 | 232 | 4.3 | 14.8 | 0.00 | 0.00 | 0.00 | 51 | 1009.1 |
| 20260508201619 | 64 | 246 | 4.3 | 9.6 | 0.00 | 0.00 | 0.00 | 53 | 1009.2 |
| 20260508201119 | 64 | 252 | 4.3 | 13.9 | 0.00 | 0.00 | 0.00 | 52 | 1009.3 |
| 20260508200621 | 64 | 290 | 4.3 | 13.9 | 0.00 | 0.00 | 0.00 | 52 | 1009.3 |
| 20260508200115 | 64 | 238 | 5.2 | 13.0 | 0.00 | 0.00 | 0.00 | 51 | 1009.3 |
| 20260508195614 | 65 | 285 | 5.2 | 13.9 | 0.00 | 0.00 | 0.00 | 51 | 1009.3 |
| 20260508195113 | 65 | 262 | 4.3 | 13.9 | 0.00 | 0.00 | 0.00 | 51 | 1009.3 |
| 20260508194613 | 65 | 238 | 4.3 | 15.6 | 0.00 | 0.00 | 0.00 | 52 | 1009.4 |
| 20260508194113 | 65 | 252 | 5.2 | 15.6 | 0.00 | 0.00 | 0.00 | 53 | 1009.4 |
| 20260508193613 | 66 | 261 | 5.2 | 13.9 | 0.00 | 0.00 | 0.00 | 50 | 1009.4 |
| 20260508193114 | 65 | 207 | 4.3 | 13.9 | 0.00 | 0.00 | 0.00 | 54 | 1009.5 |
| 20260508192612 | 65 | 292 | 3.5 | 10.4 | 0.00 | 0.00 | 0.00 | 53 | 1009.5 |
| 20260508192109 | 65 | 209 | 3.5 | 9.6 | 0.00 | 0.00 | 0.00 | 53 | 1009.7 |
| 20260508191608 | 65 | 355 | 4.3 | 9.6 | 0.00 | 0.00 | 0.00 | 51 | 1009.8 |
| 20260508191109 | 65 | 240 | 4.3 | 13.9 | 0.00 | 0.00 | 0.00 | 53 | 1009.9 |
| 20260508190607 | 65 | 240 | 4.3 | 13.9 | 0.00 | 0.00 | 0.00 | 53 | 1009.9 |
| 20260508190108 | 65 | 229 | 5.2 | 13.9 | 0.00 | 0.00 | 0.00 | 52 | 1009.9 |
| 20260508185606 | 66 | 297 | 4.3 | 13.9 | 0.00 | 0.00 | 0.00 | 53 | 1010.0 |
| 20260508185103 | 66 | 242 | 5.2 | 14.8 | 0.00 | 0.00 | 0.00 | 55 | 1010.0 |
| 20260508184600 | 67 | 249 | 6.1 | 14.8 | 0.00 | 0.00 | 0.00 | 52 | 1010.1 |
| 20260508184102 | 67 | 263 | 6.1 | 13.0 | 0.00 | 0.00 | 0.00 | 56 | 1010.1 |
| 20260508183601 | 66 | 255 | 5.2 | 13.0 | 0.00 | 0.00 | 0.00 | 58 | 1010.1 |
| 20260508183335 | 65 | 145 | 4.3 | 12.2 | 0.00 | 0.00 | 0.00 | 57 | 1010.1 |
| 20260508182559 | 65 | 198 | 4.3 | 11.3 | 0.00 | 0.00 | 0.00 | 52 | 1010.2 |
| 20260508182328 | 65 | 185 | 4.3 | 12.2 | 0.00 | 0.00 | 0.00 | 54 | 1010.3 |
| 20260508181557 | 65 | 251 | 4.3 | 12.2 | 0.00 | 0.00 | 0.00 | 57 | 1010.4 |
| 20260508181057 | 65 | 207 | 5.2 | 12.2 | 0.00 | 0.00 | 0.00 | 54 | 1010.4 |
| 20260508180557 | 66 | 252 | 5.2 | 13.9 | 0.00 | 0.00 | 0.00 | 52 | 1010.4 |
| 20260508180330 | 67 | 237 | 4.3 | 13.9 | 0.00 | 0.00 | 0.00 | 49 | 1010.5 |
| 20260508175558 | 67 | 250 | 4.3 | 13.0 | 0.00 | 0.00 | 0.00 | 51 | 1010.5 |
| 20260508175324 | 68 | 252 | 4.3 | 13.0 | 0.00 | 0.00 | 0.00 | 51 | 1010.5 |
| 20260508174550 | 68 | 263 | 5.2 | 12.2 | 0.00 | 0.00 | 0.00 | 55 | 1010.6 |
| 20260508174052 | 68 | 270 | 5.2 | 14.8 | 0.00 | 0.00 | 0.00 | 53 | 1010.8 |
| 20260508173551 | 68 | 249 | 5.2 | 14.8 | 0.00 | 0.00 | 0.00 | 52 | 1010.7 |
| 20260508173052 | 68 | 260 | 5.2 | 15.6 | 0.00 | 0.00 | 0.00 | 52 | 1010.9 |
| 20260508172554 | 68 | 320 | 5.2 | 15.6 | 0.00 | 0.00 | 0.00 | 55 | 1011.0 |
| 20260508172549 | 68 | 257 | 4.3 | 13.9 | 0.00 | 0.00 | 0.00 | 53 | 1011.0 |
| 20260508171819 | 67 | 195 | 4.3 | 15.6 | 0.00 | 0.00 | 0.00 | 55 | 1011.2 |
| 20260508171701 | 67 | 219 | 5.2 | 15.6 | 0.00 | 0.00 | 0.00 | 57 | 1011.3 |
| 20260508170544 | 66 | 239 | 3.5 | 13.9 | 0.00 | 0.00 | 0.00 | 57 | 1011.4 |
| 20260508170050 | 65 | 256 | 5.2 | 10.4 | 0.00 | 0.00 | 0.00 | 56 | 1011.7 |
| 20260508170045 | 66 | 198 | 4.3 | 12.2 | 0.00 | 0.00 | 0.00 | 59 | 1011.7 |
| 20260508165037 | 65 | 201 | 4.3 | 9.6 | 0.00 | 0.00 | 0.00 | 59 | 1011.9 |
| 20260508164536 | 64 | 234 | 3.5 | 8.7 | 0.00 | 0.00 | 0.00 | 55 | 1011.9 |
| 20260508164303 | 64 | 248 | 3.5 | 8.7 | 0.00 | 0.00 | 0.00 | 59 | 1012.0 |
| 20260508163531 | 64 | 213 | 3.5 | 12.2 | 0.00 | 0.00 | 0.00 | 61 | 1012.0 |
| 20260508163033 | 64 | 261 | 3.5 | 12.2 | 0.00 | 0.00 | 0.00 | 59 | 1012.0 |
| 20260508162529 | 63 | 254 | 3.5 | 10.4 | 0.00 | 0.00 | 0.00 | 57 | 1012.1 |
| 20260508162029 | 63 | 179 | 3.5 | 10.4 | 0.00 | 0.00 | 0.00 | 57 | 1012.1 |
| 20260508161530 | 64 | 201 | 4.3 | 13.9 | 0.00 | 0.00 | 0.00 | 58 | 1012.1 |
| 20260508161026 | 64 | 192 | 5.2 | 13.9 | 0.00 | 0.00 | 0.00 | 57 | 1012.2 |
| 20260508160525 | 65 | 182 | 4.3 | 11.3 | 0.00 | 0.00 | 0.00 | 55 | 1012.2 |
| 20260508160024 | 64 | 255 | 4.3 | 14.8 | 0.00 | 0.00 | 0.00 | 56 | 1012.2 |
| 20260508155522 | 64 | 270 | 5.2 | 14.8 | 0.00 | 0.00 | 0.00 | 57 | 1012.2 |
| 20260508155020 | 64 | 15 | 5.2 | 11.3 | 0.00 | 0.00 | 0.00 | 58 | 1012.3 |
| 20260508154522 | 63 | 212 | 4.3 | 12.2 | 0.00 | 0.00 | 0.00 | 63 | 1012.3 |
| 20260508154021 | 62 | 245 | 4.3 | 12.2 | 0.00 | 0.00 | 0.00 | 60 | 1012.3 |
| 20260508153519 | 62 | 238 | 5.2 | 12.2 | 0.00 | 0.00 | 0.00 | 59 | 1012.4 |
| 20260508153020 | 62 | 269 | 5.2 | 12.2 | 0.00 | 0.00 | 0.00 | 56 | 1012.4 |
| 20260508152514 | 62 | 232 | 5.2 | 13.9 | 0.00 | 0.00 | 0.00 | 59 | 1012.4 |
| 20260508152012 | 62 | 14 | 5.2 | 13.9 | 0.00 | 0.00 | 0.00 | 57 | 1012.5 |
| 20260508151513 | 61 | 263 | 4.3 | 11.3 | 0.00 | 0.00 | 0.00 | 58 | 1012.4 |
| 20260508151012 | 60 | 300 | 3.5 | 9.6 | 0.00 | 0.00 | 0.00 | 60 | 1012.3 |
| 20260508150513 | 60 | 259 | 3.5 | 7.8 | 0.00 | 0.00 | 0.00 | 62 | 1012.5 |
| 20260508150014 | 60 | 232 | 2.6 | 7.8 | 0.00 | 0.00 | 0.00 | 62 | 1012.5 |
| 20260508145511 | 61 | 275 | 2.6 | 7.8 | 0.00 | 0.00 | 0.00 | 61 | 1012.6 |
| 20260508145010 | 61 | 270 | 2.6 | 9.6 | 0.00 | 0.00 | 0.00 | 64 | 1012.7 |
| 20260508144512 | 60 | 304 | 2.6 | 9.6 | 0.00 | 0.00 | 0.00 | 63 | 1012.7 |
| 20260508144011 | 59 | 296 | 2.6 | 7.0 | 0.00 | 0.00 | 0.00 | 67 | 1012.7 |
| 20260508143514 | 58 | 252 | 3.5 | 7.0 | 0.00 | 0.00 | 0.00 | 63 | 1012.8 |
| 20260508143011 | 58 | 250 | 3.5 | 9.6 | 0.00 | 0.00 | 0.00 | 66 | 1012.8 |
| 20260508142512 | 57 | 298 | 2.6 | 9.6 | 0.00 | 0.00 | 0.00 | 63 | 1012.9 |
| 20260508142242 | 57 | 260 | 2.6 | 5.2 | 0.00 | 0.00 | 0.00 | 65 | 1012.9 |
| 20260508141509 | 56 | 288 | 1.7 | 5.2 | 0.00 | 0.00 | 0.00 | 68 | 1013.0 |
| 20260508141010 | 55 | 261 | 2.6 | 6.1 | 0.00 | 0.00 | 0.00 | 69 | 1012.9 |
| 20260508140510 | 55 | 262 | 2.6 | 6.1 | 0.00 | 0.00 | 0.00 | 70 | 1013.0 |
| 20260508140239 | 54 | 296 | 2.6 | 6.1 | 0.00 | 0.00 | 0.00 | 68 | 1013.2 |
| 20260508135508 | 54 | 252 | 2.6 | 7.8 | 0.00 | 0.00 | 0.00 | 70 | 1013.2 |
| 20260508135010 | 53 | 262 | 3.5 | 10.4 | 0.00 | 0.00 | 0.00 | 70 | 1013.3 |
| 20260508134509 | 53 | 243 | 2.6 | 10.4 | 0.00 | 0.00 | 0.00 | 69 | 1013.2 |
| 20260508134010 | 53 | 267 | 2.6 | 7.0 | 0.00 | 0.00 | 0.00 | 70 | 1013.2 |
| 20260508133510 | 52 | 251 | 2.6 | 7.8 | 0.00 | 0.00 | 0.00 | 70 | 1013.1 |
| 20260508133009 | 52 | 192 | 1.7 | 7.8 | 0.00 | 0.00 | 0.00 | 73 | 1013.1 |
| 20260508132510 | 51 | 258 | 1.7 | 6.1 | 0.00 | 0.00 | 0.00 | 74 | 1013.0 |
| 20260508132236 | 51 | 217 | 2.6 | 7.0 | 0.00 | 0.00 | 0.00 | 74 | 1013.1 |
| 20260508131504 | 51 | 253 | 2.6 | 7.0 | 0.00 | 0.00 | 0.00 | 73 | 1013.0 |
| 20260508131005 | 51 | 241 | 2.6 | 7.0 | 0.00 | 0.00 | 0.00 | 73 | 1013.1 |
| 20260508130505 | 51 | 273 | 2.6 | 7.0 | 0.00 | 0.00 | 0.00 | 75 | 1013.0 |
| 20260508130006 | 50 | 252 | 1.7 | 6.1 | 0.00 | 0.00 | 0.00 | 76 | 1013.1 |
| 20260508125507 | 50 | 245 | 1.7 | 6.1 | 0.00 | 0.00 | 0.00 | 75 | 1013.0 |
| 20260508125002 | 50 | 230 | 1.7 | 6.1 | 0.00 | 0.00 | 0.00 | 76 | 1013.1 |
| 20260508124501 | 49 | 254 | 1.7 | 5.2 | 0.00 | 0.00 | 0.00 | 76 | 1013.0 |
| 20260508124003 | 49 | 219 | 1.7 | 5.2 | 0.00 | 0.00 | 0.00 | 77 | 1013.0 |
| 20260508123500 | 49 | 215 | 0.9 | 4.3 | 0.00 | 0.00 | 0.00 | 79 | 1013.0 |
| 20260508123001 | 48 | 232 | 1.7 | 4.3 | 0.00 | 0.00 | 0.00 | 79 | 1013.0 |
| 20260508122502 | 48 | 197 | 0.9 | 4.3 | 0.00 | 0.00 | 0.00 | 80 | 1013.0 |
| 20260508121957 | 48 | 207 | 0.9 | 4.3 | 0.00 | 0.00 | 0.00 | 81 | 1012.9 |
| 20260508121459 | 47 | 205 | 1.7 | 5.2 | 0.00 | 0.00 | 0.00 | 82 | 1013.0 |
| 20260508121229 | 47 | 227 | 0.9 | 5.2 | 0.00 | 0.00 | 0.00 | 82 | 1012.9 |
| 20260508120456 | 46 | 216 | 0.9 | 4.3 | 0.00 | 0.00 | 0.00 | 83 | 1012.9 |
| 20260508115958 | 46 | 215 | 0.9 | 4.3 | 0.00 | 0.00 | 0.00 | 85 | 1012.9 |
| 20260508115457 | 45 | 219 | 0.9 | 2.6 | 0.00 | 0.00 | 0.00 | 85 | 1012.9 |
| 20260508115226 | 45 | 217 | 0.0 | 2.6 | 0.00 | 0.00 | 0.00 | 86 | 1012.9 |
| 20260508114453 | 45 | 216 | 0.9 | 3.5 | 0.00 | 0.00 | 0.00 | 86 | 1012.9 |
| 20260508113952 | 44 | 213 | 0.9 | 3.5 | 0.00 | 0.00 | 0.00 | 86 | 1012.8 |
| 20260508113450 | 44 | 211 | 0.9 | 2.6 | 0.00 | 0.00 | 0.00 | 85 | 1012.7 |
| 20260508112948 | 44 | 211 | 0.9 | 2.6 | 0.00 | 0.00 | 0.00 | 84 | 1012.6 |
| 20260508112720 | 43 | 212 | 0.0 | 1.7 | 0.00 | 0.00 | 0.00 | 84 | 1012.6 |
| 20260508111943 | 43 | 211 | 0.0 | 2.6 | 0.00 | 0.00 | 0.00 | 84 | 1012.5 |
| 20260508111442 | 43 | 211 | 0.9 | 2.6 | 0.00 | 0.00 | 0.00 | 84 | 1012.6 |
| 20260508110939 | 43 | 205 | 0.9 | 3.5 | 0.00 | 0.00 | 0.00 | 85 | 1012.5 |
| 20260508110708 | 43 | 206 | 0.9 | 3.5 | 0.00 | 0.00 | 0.00 | 85 | 1012.5 |
| 20260508105938 | 43 | 223 | 0.9 | 1.7 | 0.00 | 0.00 | 0.00 | 85 | 1012.5 |
| 20260508105437 | 43 | 223 | 0.9 | 2.6 | 0.00 | 0.00 | 0.00 | 84 | 1012.4 |
| 20260508104935 | 43 | 222 | 0.9 | 2.6 | 0.00 | 0.00 | 0.00 | 84 | 1012.4 |
| 20260508104435 | 43 | 220 | 0.9 | 2.6 | 0.00 | 0.00 | 0.00 | 84 | 1012.4 |
| 20260508103930 | 43 | 219 | 0.9 | 2.6 | 0.00 | 0.00 | 0.00 | 84 | 1012.4 |
| 20260508103659 | 43 | 213 | 0.9 | 3.5 | 0.00 | 0.00 | 0.00 | 84 | 1012.3 |
| 20260508102931 | 42 | 212 | 0.9 | 3.5 | 0.00 | 0.00 | 0.00 | 83 | 1012.3 |
| 20260508102427 | 43 | 224 | 0.9 | 3.5 | 0.00 | 0.00 | 0.00 | 84 | 1012.3 |
| 20260508101924 | 43 | 227 | 0.9 | 3.5 | 0.00 | 0.00 | 0.00 | 83 | 1012.3 |
| 20260508101422 | 43 | 213 | 0.9 | 2.6 | 0.00 | 0.00 | 0.00 | 83 | 1012.2 |
| 20260508100922 | 42 | 204 | 0.9 | 2.6 | 0.00 | 0.00 | 0.00 | 83 | 1012.3 |
| 20260508100651 | 43 | 215 | 0.9 | 2.6 | 0.00 | 0.00 | 0.00 | 83 | 1012.3 |
| 20260508095921 | 43 | 213 | 0.9 | 3.5 | 0.00 | 0.00 | 0.00 | 83 | 1012.3 |
| 20260508095418 | 43 | 215 | 0.9 | 3.5 | 0.00 | 0.00 | 0.00 | 83 | 1012.2 |
| 20260508094923 | 42 | 251 | 0.9 | 5.2 | 0.00 | 0.00 | 0.00 | 83 | 1012.3 |
| 20260508094918 | 43 | 208 | 0.9 | 5.2 | 0.00 | 0.00 | 0.00 | 84 | 1012.2 |
| 20260508093915 | 42 | 251 | 1.7 | 6.1 | 0.00 | 0.00 | 0.00 | 83 | 1012.3 |
| 20260508093644 | 42 | 242 | 0.9 | 6.1 | 0.00 | 0.00 | 0.00 | 82 | 1012.3 |
| 20260508092913 | 42 | 263 | 0.9 | 3.5 | 0.00 | 0.00 | 0.00 | 81 | 1012.3 |
| 20260508092411 | 43 | 194 | 0.9 | 3.5 | 0.00 | 0.00 | 0.00 | 81 | 1012.3 |
| 20260508091908 | 43 | 203 | 0.9 | 3.5 | 0.00 | 0.00 | 0.00 | 81 | 1012.3 |
| 20260508091641 | 43 | 197 | 0.9 | 3.5 | 0.00 | 0.00 | 0.00 | 81 | 1012.3 |
| 20260508090910 | 43 | 206 | 0.9 | 3.5 | 0.00 | 0.00 | 0.00 | 82 | 1012.3 |
| 20260508090406 | 43 | 205 | 0.9 | 3.5 | 0.00 | 0.00 | 0.00 | 81 | 1012.3 |
| 20260508085905 | 43 | 210 | 0.9 | 2.6 | 0.00 | 0.00 | 0.00 | 81 | 1012.3 |
| 20260508085358 | 43 | 224 | 0.9 | 3.5 | 0.00 | 0.00 | 0.00 | 81 | 1012.4 |
| 20260508084859 | 43 | 221 | 0.9 | 3.5 | 0.00 | 0.00 | 0.00 | 81 | 1012.4 |
| 20260508084357 | 43 | 247 | 0.9 | 6.1 | 0.00 | 0.00 | 0.00 | 81 | 1012.3 |
| 20260508083855 | 43 | 253 | 0.9 | 6.1 | 0.00 | 0.00 | 0.00 | 81 | 1012.4 |
| 20260508083354 | 43 | 238 | 0.0 | 3.5 | 0.00 | 0.00 | 0.00 | 80 | 1012.5 |
| 20260508082852 | 43 | 246 | 0.0 | 1.7 | 0.00 | 0.00 | 0.00 | 80 | 1012.4 |
| 20260508082351 | 43 | 250 | 0.0 | 1.7 | 0.00 | 0.00 | 0.00 | 79 | 1012.4 |
| 20260508081851 | 43 | 235 | 0.0 | 0.9 | 0.00 | 0.00 | 0.00 | 79 | 1012.4 |
| 20260508081352 | 43 | 229 | 0.0 | 2.6 | 0.00 | 0.00 | 0.00 | 79 | 1012.4 |
| 20260508080848 | 43 | 217 | 0.0 | 2.6 | 0.00 | 0.00 | 0.00 | 79 | 1012.4 |
| 20260508080350 | 43 | 242 | 0.0 | 0.0 | 0.00 | 0.00 | 0.00 | 78 | 1012.4 |
| 20260508075844 | 44 | 242 | 0.0 | 0.0 | 0.00 | 0.00 | 0.00 | 78 | 1012.4 |
| 20260508075346 | 44 | 242 | 0.0 | 0.0 | 0.00 | 0.00 | 0.00 | 78 | 1012.4 |
| 20260508074846 | 44 | 243 | 0.0 | 0.0 | 0.00 | 0.00 | 0.00 | 78 | 1012.4 |
| 20260508074344 | 44 | 244 | 0.0 | 0.9 | 0.00 | 0.00 | 0.00 | 78 | 1012.4 |
| 20260508073842 | 44 | 245 | 0.0 | 1.7 | 0.00 | 0.00 | 0.00 | 78 | 1012.4 |
| 20260508073343 | 44 | 246 | 0.0 | 1.7 | 0.00 | 0.00 | 0.00 | 78 | 1012.5 |
| 20260508072837 | 44 | 246 | 0.0 | 1.7 | 0.00 | 0.00 | 0.00 | 77 | 1012.5 |
| 20260508072342 | 45 | 247 | 0.9 | 2.6 | 0.00 | 0.00 | 0.00 | 77 | 1012.6 |
| 20260508072336 | 44 | 246 | 0.0 | 1.7 | 0.00 | 0.00 | 0.00 | 77 | 1012.5 |
| 20260508071337 | 45 | 247 | 0.9 | 2.6 | 0.00 | 0.00 | 0.00 | 76 | 1012.6 |
| 20260508071105 | 46 | 247 | 0.9 | 2.6 | 0.00 | 0.00 | 0.00 | 76 | 1012.7 |
| 20260508070336 | 46 | 250 | 0.0 | 2.6 | 0.00 | 0.00 | 0.00 | 75 | 1012.6 |
| 20260508065830 | 46 | 251 | 0.0 | 4.3 | 0.00 | 0.00 | 0.00 | 74 | 1012.7 |
| 20260508065331 | 47 | 253 | 0.9 | 4.3 | 0.00 | 0.00 | 0.00 | 74 | 1012.7 |
| 20260508064832 | 47 | 220 | 0.9 | 3.5 | 0.00 | 0.00 | 0.00 | 74 | 1012.7 |
| 20260508064602 | 47 | 219 | 0.9 | 4.3 | 0.00 | 0.00 | 0.00 | 73 | 1012.7 |
| 20260508063828 | 48 | 204 | 0.9 | 4.3 | 0.00 | 0.00 | 0.00 | 72 | 1012.8 |
| 20260508063329 | 48 | 316 | 0.9 | 4.3 | 0.00 | 0.00 | 0.00 | 73 | 1012.9 |
| 20260508063055 | 48 | 355 | 1.7 | 5.2 | 0.00 | 0.00 | 0.00 | 71 | 1013.1 |
| 20260508062557 | 48 | 342 | 1.7 | 5.2 | 0.00 | 0.00 | 0.00 | 72 | 1013.0 |
| 20260508061825 | 48 | 302 | 1.7 | 5.2 | 0.00 | 0.00 | 0.00 | 73 | 1012.8 |
| 20260508061324 | 48 | 277 | 1.7 | 7.8 | 0.00 | 0.00 | 0.00 | 73 | 1012.6 |
| 20260508060823 | 48 | 209 | 1.7 | 7.8 | 0.00 | 0.00 | 0.00 | 72 | 1012.6 |
| 20260508060324 | 48 | 229 | 1.7 | 5.2 | 0.00 | 0.00 | 0.00 | 72 | 1012.5 |
| 20260508055817 | 48 | 236 | 1.7 | 5.2 | 0.00 | 0.00 | 0.00 | 73 | 1012.6 |
| 20260508055317 | 48 | 232 | 1.7 | 5.2 | 0.00 | 0.00 | 0.00 | 72 | 1012.7 |
| 20260508055047 | 48 | 215 | 1.7 | 5.2 | 0.00 | 0.00 | 0.00 | 73 | 1012.7 |
| 20260508054317 | 48 | 192 | 1.7 | 3.5 | 0.00 | 0.00 | 0.00 | 73 | 1012.7 |
| 20260508053816 | 48 | 233 | 0.9 | 3.5 | 0.00 | 0.00 | 0.00 | 73 | 1012.7 |
| 20260508053317 | 48 | 200 | 0.9 | 4.3 | 0.00 | 0.00 | 0.00 | 73 | 1012.7 |
| 20260508052812 | 48 | 194 | 1.7 | 4.3 | 0.00 | 0.00 | 0.00 | 73 | 1012.7 |
| 20260508052542 | 48 | 215 | 1.7 | 7.0 | 0.00 | 0.00 | 0.00 | 73 | 1012.6 |
| 20260508051812 | 48 | 205 | 2.6 | 7.0 | 0.00 | 0.00 | 0.00 | 73 | 1012.7 |
| 20260508051310 | 48 | 193 | 2.6 | 5.2 | 0.00 | 0.00 | 0.00 | 73 | 1012.7 |
| 20260508050809 | 48 | 204 | 1.7 | 5.2 | 0.00 | 0.00 | 0.00 | 74 | 1012.7 |
| 20260508050312 | 48 | 211 | 1.7 | 5.2 | 0.00 | 0.00 | 0.00 | 75 | 1012.7 |
| 20260508045807 | 48 | 200 | 1.7 | 5.2 | 0.00 | 0.00 | 0.00 | 76 | 1012.7 |
| 20260508045537 | 47 | 209 | 1.7 | 5.2 | 0.00 | 0.00 | 0.00 | 75 | 1012.8 |
| 20260508044804 | 47 | 215 | 1.7 | 5.2 | 0.00 | 0.00 | 0.00 | 76 | 1012.8 |
| 20260508044304 | 47 | 202 | 0.9 | 3.5 | 0.00 | 0.00 | 0.00 | 76 | 1012.8 |
| 20260508044035 | 47 | 201 | 0.9 | 2.6 | 0.00 | 0.00 | 0.00 | 78 | 1012.8 |
| 20260508043538 | 47 | 199 | 0.9 | 3.5 | 0.00 | 0.00 | 0.00 | 77 | 1012.8 |
| 20260508042759 | 47 | 198 | 0.9 | 3.5 | 0.00 | 0.00 | 0.00 | 77 | 1012.8 |
| 20260508042257 | 47 | 227 | 0.9 | 3.5 | 0.00 | 0.00 | 0.00 | 78 | 1012.8 |
| 20260508041756 | 47 | 234 | 0.0 | 1.7 | 0.00 | 0.00 | 0.00 | 77 | 1012.8 |
| 20260508041255 | 47 | 234 | 0.0 | 0.9 | 0.00 | 0.00 | 0.00 | 77 | 1012.9 |
| 20260508041027 | 47 | 234 | 0.0 | 0.9 | 0.00 | 0.00 | 0.00 | 77 | 1012.9 |
| 20260508040527 | 47 | 234 | 0.0 | 0.9 | 0.00 | 0.00 | 0.00 | 78 | 1012.9 |
| 20260508035750 | 47 | 234 | 0.0 | 2.6 | 0.00 | 0.00 | 0.00 | 78 | 1012.9 |
| 20260508035250 | 47 | 234 | 0.0 | 2.6 | 0.00 | 0.00 | 0.00 | 79 | 1012.9 |
| 20260508034752 | 47 | 234 | 0.0 | 0.9 | 0.00 | 0.00 | 0.00 | 79 | 1012.9 |
| 20260508034249 | 48 | 234 | 0.9 | 2.6 | 0.00 | 0.00 | 0.00 | 80 | 1012.9 |
| 20260508033750 | 48 | 235 | 0.9 | 2.6 | 0.00 | 0.00 | 0.00 | 80 | 1013.0 |
| 20260508033251 | 48 | 234 | 0.0 | 1.7 | 0.00 | 0.00 | 0.00 | 78 | 1013.0 |
| 20260508033021 | 48 | 234 | 0.0 | 2.6 | 0.00 | 0.00 | 0.00 | 77 | 1013.0 |
| 20260508032247 | 48 | 234 | 0.0 | 3.5 | 0.00 | 0.00 | 0.00 | 77 | 1012.8 |
| 20260508031747 | 47 | 234 | 0.0 | 3.5 | 0.00 | 0.00 | 0.00 | 78 | 1012.8 |
| 20260508031249 | 47 | 234 | 0.9 | 4.3 | 0.00 | 0.00 | 0.00 | 78 | 1012.8 |
| 20260508030749 | 47 | 217 | 1.7 | 4.3 | 0.00 | 0.00 | 0.00 | 78 | 1012.7 |
| 20260508030249 | 47 | 206 | 1.7 | 4.3 | 0.00 | 0.00 | 0.00 | 78 | 1012.7 |
| 20260508025748 | 47 | 199 | 1.7 | 3.5 | 0.00 | 0.00 | 0.00 | 76 | 1012.7 |
| 20260508025248 | 47 | 213 | 1.7 | 4.3 | 0.00 | 0.00 | 0.00 | 77 | 1012.7 |
| 20260508024747 | 47 | 195 | 1.7 | 4.3 | 0.00 | 0.00 | 0.00 | 78 | 1012.7 |
| 20260508024248 | 47 | 189 | 1.7 | 3.5 | 0.00 | 0.00 | 0.00 | 76 | 1012.7 |
| 20260508023749 | 47 | 205 | 1.7 | 3.5 | 0.00 | 0.00 | 0.00 | 75 | 1012.6 |
| 20260508023245 | 47 | 202 | 1.7 | 3.5 | 0.00 | 0.00 | 0.00 | 75 | 1012.7 |
| 20260508022745 | 47 | 207 | 1.7 | 2.6 | 0.00 | 0.00 | 0.00 | 72 | 1012.6 |
| 20260508022245 | 47 | 212 | 0.9 | 2.6 | 0.00 | 0.00 | 0.00 | 72 | 1012.7 |
| 20260508021744 | 47 | 238 | 0.9 | 2.6 | 0.00 | 0.00 | 0.00 | 69 | 1012.7 |
| 20260508021245 | 47 | 242 | 0.9 | 2.6 | 0.00 | 0.00 | 0.00 | 69 | 1012.7 |
| 20260508020745 | 48 | 242 | 0.9 | 2.6 | 0.00 | 0.00 | 0.00 | 70 | 1012.7 |
| 20260508020239 | 48 | 246 | 0.9 | 2.6 | 0.00 | 0.00 | 0.00 | 69 | 1012.8 |
| 20260508015741 | 48 | 246 | 1.7 | 2.6 | 0.00 | 0.00 | 0.00 | 67 | 1012.7 |
| 20260508015240 | 48 | 248 | 0.9 | 2.6 | 0.00 | 0.00 | 0.00 | 68 | 1012.7 |
| 20260508014740 | 48 | 269 | 0.0 | 1.7 | 0.00 | 0.00 | 0.00 | 68 | 1012.7 |
| 20260508014240 | 48 | 271 | 0.0 | 0.9 | 0.00 | 0.00 | 0.00 | 67 | 1012.7 |
| 20260508013745 | 48 | 271 | 0.0 | 0.0 | 0.00 | 0.00 | 0.00 | 66 | 1012.7 |
| 20260508013741 | 48 | 271 | 0.0 | 0.0 | 0.00 | 0.00 | 0.00 | 66 | 1012.8 |
| 20260508013006 | 48 | 271 | 0.0 | 0.0 | 0.00 | 0.00 | 0.00 | 66 | 1012.6 |
| 20260508012235 | 48 | 272 | 0.0 | 0.0 | 0.00 | 0.00 | 0.00 | 66 | 1012.5 |
| 20260508011735 | 49 | 272 | 0.0 | 0.0 | 0.00 | 0.00 | 0.00 | 66 | 1012.7 |
| 20260508011235 | 49 | 272 | 0.0 | 0.0 | 0.00 | 0.00 | 0.00 | 66 | 1012.8 |
| 20260508010736 | 49 | 272 | 0.0 | 0.0 | 0.00 | 0.00 | 0.00 | 66 | 1012.8 |
| 20260508010233 | 49 | 272 | 0.0 | 0.0 | 0.00 | 0.00 | 0.00 | 66 | 1012.7 |
| 20260508005731 | 49 | 272 | 0.0 | 0.0 | 0.00 | 0.00 | 0.00 | 65 | 1012.7 |
| 20260508005232 | 50 | 272 | 0.0 | 0.9 | 0.00 | 0.00 | 0.00 | 66 | 1012.7 |
| 20260508004731 | 50 | 272 | 0.0 | 0.9 | 0.00 | 0.00 | 0.00 | 66 | 1012.7 |
| 20260508004234 | 50 | 272 | 0.0 | 0.9 | 0.00 | 0.00 | 0.00 | 65 | 1012.7 |
| 20260508003733 | 51 | 272 | 0.0 | 0.9 | 0.00 | 0.00 | 0.00 | 63 | 1012.7 |
| 20260508003456 | 51 | 272 | 0.0 | 0.9 | 0.00 | 0.00 | 0.00 | 63 | 1012.6 |
| 20260508002727 | 51 | 272 | 0.0 | 2.6 | 0.00 | 0.00 | 0.00 | 62 | 1012.7 |
| 20260508002455 | 52 | 272 | 0.0 | 2.6 | 0.00 | 0.00 | 0.00 | 61 | 1012.5 |
| 20260508001721 | 52 | 273 | 0.9 | 2.6 | 0.00 | 0.00 | 0.00 | 61 | 1012.5 |
| 20260508001455 | 52 | 271 | 0.9 | 2.6 | 0.00 | 0.00 | 0.00 | 59 | 1012.6 |
| 20260508000723 | 53 | 273 | 0.0 | 1.7 | 0.00 | 0.00 | 0.00 | 59 | 1012.5 |
| 20260508000221 | 53 | 273 | 0.0 | 1.7 | 0.00 | 0.00 | 0.00 | 57 | 1012.5 |
| 20260507235953 | 53 | 273 | 0.0 | 2.6 | 0.00 | 0.00 | 0.00 | 57 | 1012.4 |
| 20260507235221 | 54 | 273 | 0.9 | 3.5 | 0.00 | 0.00 | 0.00 | 56 | 1012.4 |
| 20260507234717 | 54 | 273 | 1.7 | 4.3 | 0.00 | 0.00 | 0.00 | 54 | 1012.4 |
| 20260507234219 | 54 | 292 | 1.7 | 6.1 | 0.00 | 0.00 | 0.00 | 53 | 1012.4 |
| 20260507233717 | 55 | 265 | 2.6 | 6.1 | 0.00 | 0.00 | 0.00 | 53 | 1012.4 |
| 20260507233218 | 55 | 284 | 2.6 | 6.1 | 0.00 | 0.00 | 0.00 | 52 | 1012.4 |
| 20260507232715 | 55 | 259 | 1.7 | 6.1 | 0.00 | 0.00 | 0.00 | 52 | 1012.3 |
| 20260507232446 | 55 | 255 | 1.7 | 7.8 | 0.00 | 0.00 | 0.00 | 51 | 1012.3 |
| 20260507231709 | 56 | 325 | 2.6 | 7.8 | 0.00 | 0.00 | 0.00 | 51 | 1012.3 |